Location: ????????
(48.4751°N, 37.6926°E)
Time: 12:51:09
(UTC+00:00)

Cosmos 1626 - Pass Details

Date: 20 January 2021
Orbit: 490 x 494 km, 82.5° (Epoch: 26 February)

Event Time Altitude Azimuth Distance (km) Brightness Sun altitude
Rises 15:02:05 0° 195° (SSW) 2,565 6.3 -8.8°
Reaches altitude 10° 15:04:11 10° 198° (SSW) 1,687 5.4 -9.1°
Maximum altitude 15:07:52 65° 281° (W) 549 2.6 -9.7°
Drops below altitude 10° 15:11:34 10° 4° (N) 1,700 4.6 -10.2°
Sets 15:13:42 0° 8° (N) 2,587 5.5 -10.6°
